TimeEST,TemperatureF,Dew PointF,Humidity,Sea Level PressureIn,VisibilityMPH,Wind Direction,Wind SpeedMPH,Gust SpeedMPH,PrecipitationIn,Events,Conditions,WindDirDegrees,DateUTC
12:52 AM,32.0,26.1,79,30.34,10.0,NW,4.6,-,N/A,,Scattered Clouds,310,2013-12-11 05:52:00
1:52 AM,30.9,26.1,82,30.33,10.0,NW,5.8,-,N/A,,Partly Cloudy,310,2013-12-11 06:52:00
2:52 AM,30.9,26.1,82,30.35,10.0,NNW,10.4,-,N/A,,Clear,330,2013-12-11 07:52:00
3:52 AM,30.0,26.1,85,30.38,10.0,NNW,9.2,-,N/A,,Clear,340,2013-12-11 08:52:00
4:52 AM,30.0,25.0,82,30.39,10.0,NNW,5.8,-,N/A,,Clear,340,2013-12-11 09:52:00
5:52 AM,28.9,24.1,82,30.40,10.0,Calm,Calm,-,N/A,,Clear,0,2013-12-11 10:52:00
6:52 AM,30.0,25.0,82,30.40,10.0,North,3.5,-,N/A,,Clear,360,2013-12-11 11:52:00
7:52 AM,32.0,24.1,73,30.42,10.0,NE,4.6,-,N/A,,Clear,40,2013-12-11 12:52:00
8:52 AM,36.0,28.0,73,30.44,10.0,Calm,Calm,-,N/A,,Partly Cloudy,0,2013-12-11 13:52:00
9:52 AM,41.0,25.0,53,30.44,10.0,East,6.9,-,N/A,,Partly Cloudy,80,2013-12-11 14:52:00
10:52 AM,44.1,25.0,47,30.44,10.0,SE,5.8,-,N/A,,Partly Cloudy,140,2013-12-11 15:52:00
11:52 AM,46.9,27.0,46,30.41,10.0,Calm,Calm,-,N/A,,Partly Cloudy,0,2013-12-11 16:52:00
12:52 PM,50.0,28.0,43,30.38,10.0,SSE,4.6,-,N/A,,Partly Cloudy,150,2013-12-11 17:52:00
1:52 PM,53.1,27.0,37,30.36,10.0,Calm,Calm,-,N/A,,Scattered Clouds,0,2013-12-11 18:52:00
2:52 PM,53.1,24.1,32,30.36,10.0,Calm,Calm,-,N/A,,Scattered Clouds,0,2013-12-11 19:52:00
3:52 PM,54.0,21.9,29,30.35,10.0,North,4.6,-,N/A,,Mostly Cloudy,360,2013-12-11 20:52:00
4:52 PM,53.1,26.1,35,30.35,10.0,Calm,Calm,-,N/A,,Mostly Cloudy,0,2013-12-11 21:52:00
5:52 PM,50.0,28.0,43,30.36,10.0,NW,5.8,-,N/A,,Mostly Cloudy,320,2013-12-11 22:52:00
6:52 PM,48.9,28.0,44,30.36,10.0,NW,6.9,-,N/A,,Mostly Cloudy,320,2013-12-11 23:52:00
7:52 PM,48.0,28.0,46,30.38,10.0,NW,5.8,-,N/A,,Mostly Cloudy,320,2013-12-12 00:52:00
8:52 PM,46.0,28.0,50,30.38,10.0,WNW,4.6,-,N/A,,Mostly Cloudy,300,2013-12-12 01:52:00
9:52 PM,43.0,30.0,60,30.38,10.0,NW,4.6,-,N/A,,Mostly Cloudy,310,2013-12-12 02:52:00
10:52 PM,42.1,28.9,60,30.36,10.0,NW,8.1,-,N/A,,Mostly Cloudy,320,2013-12-12 03:52:00
11:52 PM,39.0,28.0,65,30.36,10.0,NW,8.1,-,N/A,,Mostly Cloudy,320,2013-12-12 04:52:00